Time,TemperatureF,DewpointF,PressureIn,WindDirection,WindDirectionDegrees,WindSpeedMPH,WindSpeedGustMPH,Humidity,HourlyPrecipIn,Conditions,Clouds,dailyrainin,SoftwareType,DateUTC
2013-02-10 00:02:00,40.6,38.2,30.31,WNW,298,0.0,2.0,91,0.00,,,0.00,Wunderground v.1.15,2013-02-10 08:02:00,
2013-02-10 00:08:00,40.3,37.9,30.31,WNW,298,0.0,2.0,91,0.00,,,0.00,Wunderground v.1.15,2013-02-10 08:08:00,
2013-02-10 00:14:00,40.0,37.9,30.32,WNW,298,0.0,1.0,92,0.00,,,0.00,Wunderground v.1.15,2013-02-10 08:14:00,
2013-02-10 00:19:00,39.8,37.4,30.32,WNW,298,0.0,1.0,91,0.00,,,0.00,Wunderground v.1.15,2013-02-10 08:19:00,
2013-02-10 00:24:00,39.6,37.5,30.32,WNW,298,0.0,0.0,92,0.00,,,0.00,Wunderground v.1.15,2013-02-10 08:24:00,
2013-02-10 12:27:00,44.8,42.0,30.35,WNW,298,1.0,1.0,90,0.00,,,0.00,Wunderground v.1.15,2013-02-10 20:27:00,
2013-02-10 12:33:00,45.0,42.0,30.35,WNW,298,0.0,1.0,89,0.00,,,0.00,Wunderground v.1.15,2013-02-10 20:33:00,
2013-02-10 12:38:00,45.3,42.0,30.35,WNW,298,0.0,0.0,88,0.00,,,0.00,Wunderground v.1.15,2013-02-10 20:38:00,
2013-02-10 12:43:00,45.6,42.0,30.35,WNW,298,0.0,2.0,87,0.00,,,0.00,Wunderground v.1.15,2013-02-10 20:43:00,
2013-02-10 12:48:00,45.8,42.2,30.35,WNW,298,0.0,0.0,87,0.00,,,0.00,Wunderground v.1.15,2013-02-10 20:48:00,
2013-02-10 12:54:00,46.1,42.1,30.35,WNW,298,1.0,1.0,86,0.00,,,0.00,Wunderground v.1.15,2013-02-10 20:54:00,
2013-02-10 13:00:00,46.5,42.5,30.35,WNW,298,1.0,1.0,86,0.00,,,0.00,Wunderground v.1.15,2013-02-10 21:00:00,
2013-02-10 13:05:00,46.6,42.0,30.34,WNW,298,1.0,1.0,84,0.00,,,0.00,Wunderground v.1.15,2013-02-10 21:05:00,
2013-02-10 13:11:00,46.7,41.8,30.35,WNW,298,0.0,3.0,83,0.00,,,0.00,Wunderground v.1.15,2013-02-10 21:11:00,
2013-02-10 13:16:00,46.7,41.5,30.35,WNW,298,1.0,3.0,82,0.00,,,0.00,Wunderground v.1.15,2013-02-10 21:16:00,
2013-02-10 13:21:00,46.7,41.5,30.34,WNW,298,0.0,0.0,82,0.00,,,0.00,Wunderground v.1.15,2013-02-10 21:21:00,
2013-02-10 13:27:00,46.6,40.8,30.34,WNW,298,0.0,0.0,80,0.00,,,0.00,Wunderground v.1.15,2013-02-10 21:27:00,
2013-02-10 13:32:00,46.1,37.9,30.34,WNW,298,1.0,3.0,73,0.00,,,0.00,Wunderground v.1.15,2013-02-10 21:32:00,
2013-02-10 13:38:00,46.1,38.3,30.34,WNW,298,1.0,3.0,74,0.00,,,0.00,Wunderground v.1.15,2013-02-10 21:38:00,
2013-02-10 13:43:00,46.2,37.7,30.34,WNW,298,1.0,3.0,72,0.00,,,0.00,Wunderground v.1.15,2013-02-10 21:43:00,
2013-02-10 13:49:00,46.1,37.6,30.34,NE,42,1.0,4.0,72,0.00,,,0.00,Wunderground v.1.15,2013-02-10 21:49:00,
2013-02-10 13:54:00,46.1,37.2,30.33,NNE,20,1.0,3.0,71,0.00,,,0.00,Wunderground v.1.15,2013-02-10 21:54:00,
2013-02-10 14:00:00,46.0,37.8,30.34,NNW,346,1.0,3.0,73,0.00,,,0.00,Wunderground v.1.15,2013-02-10 22:00:00,
2013-02-10 14:05:00,46.1,37.9,30.33,NW,311,2.0,4.0,73,0.00,,,0.00,Wunderground v.1.15,2013-02-10 22:05:00,
2013-02-10 14:10:00,46.2,37.7,30.33,NW,309,4.0,4.0,72,0.00,,,0.00,Wunderground v.1.15,2013-02-10 22:10:00,
2013-02-10 14:16:00,46.2,37.7,30.33,NNW,342,5.0,5.0,72,0.00,,,0.00,Wunderground v.1.15,2013-02-10 22:16:00,
2013-02-10 14:21:00,46.0,37.5,30.33,NNW,328,4.0,4.0,72,0.00,,,0.00,Wunderground v.1.15,2013-02-10 22:21:00,
2013-02-10 14:27:00,45.9,37.4,30.33,NNW,339,4.0,5.0,72,0.00,,,0.00,Wunderground v.1.15,2013-02-10 22:27:00,
2013-02-10 14:32:00,46.0,37.5,30.33,WNW,293,3.0,3.0,72,0.00,,,0.00,Wunderground v.1.15,2013-02-10 22:32:00,
2013-02-10 14:37:00,46.1,37.2,30.34,North,350,3.0,3.0,71,0.00,,,0.00,Wunderground v.1.15,2013-02-10 22:37:00,
2013-02-10 14:43:00,46.0,37.5,30.34,NNW,341,4.0,10.0,72,0.00,,,0.00,Wunderground v.1.15,2013-02-10 22:43:00,
2013-02-10 14:48:00,46.0,37.5,30.34,North,360,5.0,10.0,72,0.00,,,0.00,Wunderground v.1.15,2013-02-10 22:48:00,
2013-02-10 14:54:00,45.8,37.3,30.34,NNW,340,4.0,7.0,72,0.00,,,0.00,Wunderground v.1.15,2013-02-10 22:54:00,
2013-02-10 14:59:00,45.7,37.2,30.34,NNW,344,3.0,7.0,72,0.00,,,0.00,Wunderground v.1.15,2013-02-10 22:59:00,
2013-02-10 15:05:00,45.6,37.1,30.34,NNW,344,2.0,3.0,72,0.00,,,0.00,Wunderground v.1.15,2013-02-10 23:05:00,
2013-02-10 15:10:00,45.6,37.1,30.33,NNW,344,1.0,3.0,72,0.00,,,0.00,Wunderground v.1.15,2013-02-10 23:10:00,
2013-02-10 15:16:00,45.6,37.4,30.34,NNW,343,2.0,3.0,73,0.00,,,0.00,Wunderground v.1.15,2013-02-10 23:16:00,
2013-02-10 15:21:00,45.6,37.4,30.34,NNW,335,3.0,3.0,73,0.00,,,0.00,Wunderground v.1.15,2013-02-10 23:21:00,
2013-02-10 15:27:00,45.6,37.4,30.34,NW,325,4.0,6.0,73,0.00,,,0.00,Wunderground v.1.15,2013-02-10 23:27:00,
2013-02-10 15:33:00,45.6,37.4,30.34,NW,325,4.0,4.0,73,0.00,,,0.00,Wunderground v.1.15,2013-02-10 23:33:00,
2013-02-10 15:38:00,45.5,37.3,30.34,NNW,348,3.0,5.0,73,0.00,,,0.00,Wunderground v.1.15,2013-02-10 23:38:00,
2013-02-10 15:43:00,45.2,37.1,30.34,North,355,3.0,5.0,73,0.00,,,0.00,Wunderground v.1.15,2013-02-10 23:43:00,
2013-02-10 15:48:00,45.1,37.3,30.34,North,355,3.0,5.0,74,0.00,,,0.00,Wunderground v.1.15,2013-02-10 23:48:00,
2013-02-10 15:54:00,45.0,36.9,30.34,North,10,3.0,3.0,73,0.00,,,0.00,Wunderground v.1.15,2013-02-10 23:54:00,
2013-02-10 15:59:00,45.0,36.9,30.34,North,360,2.0,3.0,73,0.00,,,0.00,Wunderground v.1.15,2013-02-10 23:59:00,
2013-02-10 16:05:00,45.0,37.2,30.34,NNW,343,2.0,4.0,74,0.00,,,0.00,Wunderground v.1.15,2013-02-11 00:05:00,
2013-02-10 16:10:00,45.2,37.4,30.34,NNW,337,2.0,3.0,74,0.00,,,0.00,Wunderground v.1.15,2013-02-11 00:10:00,
2013-02-10 16:15:00,45.4,37.6,30.34,WNW,288,2.0,3.0,74,0.00,,,0.00,Wunderground v.1.15,2013-02-11 00:15:00,
2013-02-10 16:21:00,45.5,37.7,30.34,WNW,288,1.0,3.0,74,0.00,,,0.00,Wunderground v.1.15,2013-02-11 00:21:00,
2013-02-10 16:26:00,45.6,37.8,30.34,WNW,289,0.0,3.0,74,0.00,,,0.00,Wunderground v.1.15,2013-02-11 00:26:00,
2013-02-10 16:31:00,45.5,37.0,30.34,NNE,23,1.0,3.0,72,0.00,,,0.00,Wunderground v.1.15,2013-02-11 00:31:00,
2013-02-10 16:36:00,45.4,37.2,30.34,NW,318,3.0,4.0,73,0.00,,,0.00,Wunderground v.1.15,2013-02-11 00:36:00,
2013-02-10 16:42:00,45.4,37.2,30.34,NW,318,3.0,3.0,73,0.00,,,0.00,Wunderground v.1.15,2013-02-11 00:42:00,
2013-02-10 16:47:00,45.5,37.3,30.34,NW,316,2.0,3.0,73,0.00,,,0.00,Wunderground v.1.15,2013-02-11 00:47:00,
2013-02-10 16:52:00,45.4,36.9,30.34,NW,317,2.0,3.0,72,0.00,,,0.00,Wunderground v.1.15,2013-02-11 00:52:00,
2013-02-10 16:58:00,45.4,37.2,30.33,NW,317,1.0,3.0,73,0.00,,,0.00,Wunderground v.1.15,2013-02-11 00:58:00,
2013-02-10 17:03:00,45.4,37.2,30.34,NW,317,1.0,3.0,73,0.00,,,0.00,Wunderground v.1.15,2013-02-11 01:03:00,
2013-02-10 17:08:00,45.3,36.8,30.33,NW,317,2.0,3.0,72,0.00,,,0.00,Wunderground v.1.15,2013-02-11 01:08:00,
2013-02-10 17:14:00,45.2,37.1,30.33,NW,317,2.0,3.0,73,0.00,,,0.00,Wunderground v.1.15,2013-02-11 01:14:00,
2013-02-10 17:19:00,45.1,37.3,30.33,NW,317,1.0,3.0,74,0.00,,,0.00,Wunderground v.1.15,2013-02-11 01:19:00,
2013-02-10 17:24:00,45.0,36.9,30.33,NW,317,0.0,3.0,73,0.00,,,0.00,Wunderground v.1.15,2013-02-11 01:24:00,
2013-02-10 17:30:00,45.0,37.2,30.33,NW,317,0.0,3.0,74,0.00,,,0.00,Wunderground v.1.15,2013-02-11 01:30:00,
2013-02-10 17:35:00,45.0,37.6,30.33,NW,317,0.0,3.0,75,0.00,,,0.00,Wunderground v.1.15,2013-02-11 01:35:00,
2013-02-10 17:40:00,45.0,37.6,30.34,NW,317,0.0,3.0,75,0.00,,,0.00,Wunderground v.1.15,2013-02-11 01:40:00,
2013-02-10 17:46:00,44.9,37.5,30.33,NW,317,1.0,4.0,75,0.00,,,0.00,Wunderground v.1.15,2013-02-11 01:46:00,
2013-02-10 17:51:00,44.8,37.4,30.33,NW,317,1.0,3.0,75,0.00,,,0.00,Wunderground v.1.15,2013-02-11 01:51:00,
2013-02-10 17:56:00,44.7,37.3,30.33,NW,317,1.0,3.0,75,0.00,,,0.00,Wunderground v.1.15,2013-02-11 01:56:00,
2013-02-10 18:02:00,44.7,37.3,30.34,NW,317,1.0,3.0,75,0.00,,,0.00,Wunderground v.1.15,2013-02-11 02:02:00,
2013-02-10 18:08:00,44.7,37.9,30.34,NW,317,2.0,3.0,77,0.00,,,0.00,Wunderground v.1.15,2013-02-11 02:08:00,
2013-02-10 18:13:00,44.7,37.6,30.34,NW,317,1.0,2.0,76,0.00,,,0.00,Wunderground v.1.15,2013-02-11 02:13:00,
2013-02-10 18:18:00,44.7,37.9,30.34,NW,317,1.0,2.0,77,0.00,,,0.00,Wunderground v.1.15,2013-02-11 02:18:00,
2013-02-10 18:24:00,44.7,37.9,30.34,NW,317,0.0,2.0,77,0.00,,,0.00,Wunderground v.1.15,2013-02-11 02:24:00,
2013-02-10 18:29:00,44.6,37.5,30.34,NW,317,1.0,2.0,76,0.00,,,0.00,Wunderground v.1.15,2013-02-11 02:29:00,
2013-02-10 18:34:00,44.5,37.7,30.34,NW,317,0.0,1.0,77,0.00,,,0.00,Wunderground v.1.15,2013-02-11 02:34:00,
2013-02-10 18:39:00,44.4,37.3,30.34,NW,317,1.0,4.0,76,0.00,,,0.00,Wunderground v.1.15,2013-02-11 02:39:00,
2013-02-10 18:45:00,44.3,37.5,30.34,NW,317,1.0,2.0,77,0.00,,,0.00,Wunderground v.1.15,2013-02-11 02:45:00,
2013-02-10 18:50:00,44.3,37.5,30.34,NW,315,1.0,1.0,77,0.00,,,0.00,Wunderground v.1.15,2013-02-11 02:50:00,
2013-02-10 18:56:00,44.2,37.4,30.35,NW,315,1.0,2.0,77,0.00,,,0.00,Wunderground v.1.15,2013-02-11 02:56:00,